Location: Dziadowski
(50.3833°N, 20.0333°E)
Time: 06:43:56
(UTC+00:00)

Cosmos 468 Rocket - Pass Details

Date: 18 January 2026
Orbit: 740 x 774 km, 74.0° (Epoch: 17 February)

Event Time Altitude Azimuth Distance (km) Brightness Sun altitude
Exits shadow 05:33:19 - 330° (NNW) 2,756 6.4 -9.1°
Reaches altitude 10° 05:34:36 10° 327° (NNW) 2,268 6.0 -8.9°
Maximum altitude 05:39:32 50° 253° (WSW) 955 4.2 -8.2°
Drops below altitude 10° 05:44:29 10° 180° (S) 2,270 6.8 -7.5°
Sets 05:46:54 0° 175° (S) 3,195 7.6 -7.1°
